| time (UTC) | temp F | wind direction | speed MPH | gust MPH | rain 1hr in | rain 24hr in | rain mn in | humidity % | barometer mb |
| 20260507040507 | 49 | 86 | 1.0 | 5.0 | 0.00 | 0.00 | 0.00 | 42 | 1016.1 |
| 20260507040002 | 49 | 45 | 4.0 | 6.0 | 0.00 | 0.00 | 0.00 | 41 | 1016.1 |
| 20260507035459 | 50 | 54 | 4.0 | 5.0 | 0.00 | 0.00 | 0.00 | 40 | 1015.9 |
| 20260507034951 | 50 | 103 | 3.0 | 4.0 | 0.00 | 0.00 | 0.00 | 39 | 1015.9 |
| 20260507034448 | 51 | 105 | 4.0 | 6.0 | 0.00 | 0.00 | 0.00 | 38 | 1015.8 |
| 20260507033946 | 51 | 64 | 2.0 | 4.0 | 0.00 | 0.00 | 0.00 | 38 | 1015.6 |
| 20260507033444 | 51 | 87 | 3.0 | 4.0 | 0.00 | 0.00 | 0.00 | 38 | 1015.5 |
| 20260507032941 | 51 | 73 | 2.0 | 5.0 | 0.00 | 0.00 | 0.00 | 39 | 1015.5 |
| 20260507032437 | 51 | 84 | 3.0 | 4.0 | 0.00 | 0.00 | 0.00 | 41 | 1015.4 |
| 20260507031933 | 51 | 80 | 2.0 | 2.0 | 0.00 | 0.00 | 0.00 | 41 | 1015.2 |
| 20260507031430 | 52 | 68 | 2.0 | 4.0 | 0.00 | 0.00 | 0.00 | 38 | 1015.1 |
| 20260507030927 | 53 | 38 | 2.0 | 5.0 | 0.00 | 0.00 | 0.00 | 35 | 1015.1 |
| 20260507030424 | 54 | 46 | 3.0 | 4.0 | 0.00 | 0.00 | 0.00 | 34 | 1015.0 |
| 20260507025921 | 55 | 54 | 4.0 | 6.0 | 0.00 | 0.00 | 0.00 | 33 | 1014.9 |
| 20260507025418 | 55 | 52 | 2.0 | 3.0 | 0.00 | 0.00 | 0.00 | 31 | 1014.9 |
| 20260507024916 | 57 | 56 | 1.0 | 2.0 | 0.00 | 0.00 | 0.00 | 30 | 1014.8 |
| 20260507024413 | 59 | 321 | 2.0 | 5.0 | 0.00 | 0.00 | 0.00 | 25 | 1014.5 |
| 20260507023908 | 59 | 336 | 3.0 | 4.0 | 0.00 | 0.00 | 0.00 | 24 | 1014.5 |
| 20260507023406 | 57 | 307 | 2.0 | 2.0 | 0.00 | 0.00 | 0.00 | 32 | 1014.4 |
| 20260507022903 | 58 | 290 | 0.0 | 2.0 | 0.00 | 0.00 | 0.00 | 29 | 1014.4 |
| 20260507022400 | 59 | 31 | 4.0 | 5.0 | 0.00 | 0.00 | 0.00 | 24 | 1014.2 |
| 20260507021856 | 60 | 344 | 1.0 | 3.0 | 0.00 | 0.00 | 0.00 | 24 | 1014.4 |
| 20260507021351 | 61 | 15 | 2.0 | 3.0 | 0.00 | 0.00 | 0.00 | 24 | 1014.2 |
| 20260507020849 | 61 | 350 | 2.0 | 5.0 | 0.00 | 0.00 | 0.00 | 23 | 1014.4 |
| 20260507020345 | 62 | 341 | 0.0 | 3.0 | 0.00 | 0.00 | 0.00 | 25 | 1014.1 |
| 20260507015842 | 62 | 49 | 2.0 | 5.0 | 0.00 | 0.00 | 0.00 | 23 | 1014.2 |
| 20260507015340 | 62 | 333 | 2.0 | 3.0 | 0.00 | 0.00 | 0.00 | 24 | 1014.1 |
| 20260507014837 | 63 | 8 | 1.0 | 8.0 | 0.00 | 0.00 | 0.00 | 23 | 1013.9 |
| 20260507014333 | 63 | 11 | 3.0 | 8.0 | 0.00 | 0.00 | 0.00 | 22 | 1013.9 |
| 20260507013830 | 64 | 341 | 2.0 | 4.0 | 0.00 | 0.00 | 0.00 | 22 | 1013.7 |
| 20260507013327 | 64 | 308 | 3.0 | 3.0 | 0.00 | 0.00 | 0.00 | 22 | 1013.7 |
| 20260507012825 | 64 | 55 | 5.0 | 7.0 | 0.00 | 0.00 | 0.00 | 21 | 1013.8 |
| 20260507012320 | 64 | 313 | 1.0 | 3.0 | 0.00 | 0.00 | 0.00 | 24 | 1013.9 |
| 20260507011818 | 65 | 19 | 1.0 | 3.0 | 0.00 | 0.00 | 0.00 | 22 | 1013.6 |
| 20260507011315 | 65 | 354 | 1.0 | 5.0 | 0.00 | 0.00 | 0.00 | 21 | 1013.6 |
| 20260507010814 | 65 | 273 | 2.0 | 3.0 | 0.00 | 0.00 | 0.00 | 22 | 1013.6 |
| 20260507010309 | 66 | 31 | 6.0 | 10.0 | 0.00 | 0.00 | 0.00 | 20 | 1013.8 |
| 20260507005802 | 66 | 76 | 8.0 | 13.0 | 0.00 | 0.00 | 0.00 | 21 | 1013.5 |
| 20260507005258 | 66 | 56 | 6.0 | 8.0 | 0.00 | 0.00 | 0.00 | 21 | 1013.6 |
| 20260507004755 | 66 | 13 | 2.0 | 13.0 | 0.00 | 0.00 | 0.00 | 22 | 1013.6 |
| 20260507004253 | 66 | 23 | 4.0 | 6.0 | 0.00 | 0.00 | 0.00 | 21 | 1013.4 |
| 20260507003749 | 67 | 58 | 8.0 | 17.0 | 0.00 | 0.00 | 0.00 | 20 | 1013.6 |
| 20260507003244 | 67 | 56 | 7.0 | 12.0 | 0.00 | 0.00 | 0.00 | 21 | 1013.7 |
| 20260507002740 | 67 | 80 | 7.0 | 14.0 | 0.00 | 0.00 | 0.00 | 20 | 1013.4 |
| 20260507002236 | 67 | 56 | 6.0 | 14.0 | 0.00 | 0.00 | 0.00 | 21 | 1013.4 |
| 20260507001733 | 67 | 33 | 8.0 | 17.0 | 0.00 | 0.00 | 0.00 | 20 | 1013.0 |
| 20260507001230 | 69 | 59 | 7.0 | 10.0 | 0.00 | 0.00 | 0.00 | 20 | 1013.1 |
| 20260507000727 | 70 | 318 | 2.0 | 4.0 | 0.00 | 0.00 | 0.00 | 21 | 1012.9 |
| 20260507000222 | 68 | 67 | 4.0 | 10.0 | 0.00 | 0.00 | 0.00 | 20 | 1012.9 |
| 20260506235720 | 69 | 36 | 9.0 | 19.0 | 0.00 | 0.00 | 0.00 | 22 | 1012.9 |
| 20260506235215 | 69 | 309 | 2.0 | 7.0 | 0.00 | 0.00 | 0.00 | 24 | 1012.5 |
| 20260506234712 | 68 | 57 | 4.0 | 8.0 | 0.00 | 0.00 | 0.00 | 22 | 1012.8 |
| 20260506234210 | 69 | 58 | 6.0 | 6.0 | 0.00 | 0.00 | 0.00 | 21 | 1012.5 |
| 20260506233707 | 68 | 31 | 7.0 | 10.0 | 0.00 | 0.00 | 0.00 | 21 | 1012.5 |
| 20260506233203 | 67 | 114 | 8.0 | 12.0 | 0.00 | 0.00 | 0.00 | 21 | 1012.8 |
| 20260506232700 | 68 | 46 | 7.0 | 12.0 | 0.00 | 0.00 | 0.00 | 22 | 1012.8 |
| 20260506232155 | 68 | 63 | 13.0 | 17.0 | 0.00 | 0.00 | 0.00 | 22 | 1012.7 |
| 20260506231652 | 67 | 43 | 4.0 | 22.0 | 0.00 | 0.00 | 0.00 | 21 | 1012.8 |
| 20260506231151 | 68 | 56 | 9.0 | 18.0 | 0.00 | 0.00 | 0.00 | 21 | 1012.9 |
| 20260506230647 | 68 | 30 | 8.0 | 11.0 | 0.00 | 0.00 | 0.00 | 21 | 1012.9 |
| 20260506230144 | 67 | 39 | 3.0 | 20.0 | 0.00 | 0.00 | 0.00 | 21 | 1012.7 |
| 20260506225640 | 68 | 47 | 5.0 | 18.0 | 0.00 | 0.00 | 0.00 | 22 | 1012.5 |
| 20260506225137 | 68 | 47 | 14.0 | 19.0 | 0.00 | 0.00 | 0.00 | 21 | 1012.8 |
| 20260506224634 | 68 | 35 | 5.0 | 15.0 | 0.00 | 0.00 | 0.00 | 24 | 1012.7 |
| 20260506224130 | 68 | 57 | 10.0 | 15.0 | 0.00 | 0.00 | 0.00 | 23 | 1012.5 |
| 20260506223627 | 68 | 350 | 6.0 | 11.0 | 0.00 | 0.00 | 0.00 | 23 | 1012.8 |
| 20260506223123 | 69 | 34 | 5.0 | 13.0 | 0.00 | 0.00 | 0.00 | 22 | 1012.9 |
| 20260506222620 | 70 | 336 | 5.0 | 12.0 | 0.00 | 0.00 | 0.00 | 23 | 1012.8 |
| 20260506222116 | 69 | 343 | 2.0 | 15.0 | 0.00 | 0.00 | 0.00 | 23 | 1012.9 |
| 20260506221614 | 72 | 327 | 4.0 | 5.0 | 0.00 | 0.00 | 0.00 | 22 | 1012.8 |
| 20260506221112 | 71 | 28 | 3.0 | 6.0 | 0.00 | 0.00 | 0.00 | 24 | 1012.9 |
| 20260506220608 | 69 | 55 | 6.0 | 8.0 | 0.00 | 0.00 | 0.00 | 23 | 1012.9 |
| 20260506215600 | 71 | 44 | 6.0 | 6.0 | 0.00 | 0.00 | 0.00 | 23 | 1012.9 |
| 20260506215056 | 69 | 109 | 4.0 | 8.0 | 0.00 | 0.00 | 0.00 | 24 | 1013.0 |
| 20260506214553 | 70 | 25 | 3.0 | 7.0 | 0.00 | 0.00 | 0.00 | 24 | 1013.0 |
| 20260506214050 | 69 | 289 | 4.0 | 10.0 | 0.00 | 0.00 | 0.00 | 25 | 1012.9 |
| 20260506213548 | 69 | 37 | 10.0 | 12.0 | 0.00 | 0.00 | 0.00 | 25 | 1012.8 |
| 20260506213045 | 69 | 39 | 4.0 | 7.0 | 0.00 | 0.00 | 0.00 | 25 | 1012.8 |
| 20260506212542 | 68 | 40 | 10.0 | 13.0 | 0.00 | 0.00 | 0.00 | 26 | 1012.8 |
| 20260506212037 | 68 | 62 | 9.0 | 11.0 | 0.00 | 0.00 | 0.00 | 26 | 1013.1 |
| 20260506211533 | 68 | 41 | 6.0 | 14.0 | 0.00 | 0.00 | 0.00 | 25 | 1013.1 |
| 20260506211030 | 69 | 43 | 13.0 | 16.0 | 0.00 | 0.00 | 0.00 | 24 | 1013.1 |
| 20260506210527 | 69 | 61 | 6.0 | 13.0 | 0.00 | 0.00 | 0.00 | 26 | 1012.9 |
| 20260506210024 | 69 | 302 | 5.0 | 6.0 | 0.00 | 0.00 | 0.00 | 24 | 1012.9 |
| 20260506205520 | 68 | 50 | 13.0 | 13.0 | 0.00 | 0.00 | 0.00 | 26 | 1012.8 |
| 20260506205015 | 68 | 77 | 7.0 | 14.0 | 0.00 | 0.00 | 0.00 | 26 | 1012.8 |
| 20260506204514 | 69 | 300 | 3.0 | 16.0 | 0.00 | 0.00 | 0.00 | 25 | 1012.8 |
| 20260506204010 | 69 | 311 | 4.0 | 9.0 | 0.00 | 0.00 | 0.00 | 25 | 1012.8 |
| 20260506203509 | 68 | 95 | 6.0 | 9.0 | 0.00 | 0.00 | 0.00 | 27 | 1012.8 |
| 20260506203004 | 69 | 324 | 3.0 | 6.0 | 0.00 | 0.00 | 0.00 | 26 | 1012.8 |
| 20260506202502 | 69 | 330 | 5.0 | 12.0 | 0.00 | 0.00 | 0.00 | 28 | 1012.4 |
| 20260506201957 | 67 | 45 | 5.0 | 17.0 | 0.00 | 0.00 | 0.00 | 27 | 1012.8 |
| 20260506201455 | 67 | 45 | 9.0 | 17.0 | 0.00 | 0.00 | 0.00 | 28 | 1012.7 |
| 20260506200946 | 68 | 40 | 17.0 | 20.0 | 0.00 | 0.00 | 0.00 | 27 | 1012.5 |
| 20260506200442 | 68 | 13 | 5.0 | 10.0 | 0.00 | 0.00 | 0.00 | 27 | 1012.8 |
| 20260506195939 | 69 | 302 | 4.0 | 4.0 | 0.00 | 0.00 | 0.00 | 30 | 1012.4 |
| 20260506195436 | 67 | 5 | 2.0 | 11.0 | 0.00 | 0.00 | 0.00 | 28 | 1012.7 |
| 20260506194932 | 66 | 109 | 7.0 | 20.0 | 0.00 | 0.00 | 0.00 | 26 | 1012.7 |
| 20260506194430 | 68 | 38 | 7.0 | 13.0 | 0.00 | 0.00 | 0.00 | 27 | 1012.7 |
| 20260506193926 | 68 | 262 | 4.0 | 6.0 | 0.00 | 0.00 | 0.00 | 30 | 1012.8 |
| 20260506193424 | 68 | 28 | 6.0 | 9.0 | 0.00 | 0.00 | 0.00 | 29 | 1012.4 |
| 20260506192920 | 66 | 351 | 4.0 | 16.0 | 0.00 | 0.00 | 0.00 | 28 | 1012.7 |
| 20260506192417 | 68 | 61 | 10.0 | 12.0 | 0.00 | 0.00 | 0.00 | 27 | 1012.7 |
| 20260506191914 | 69 | 4 | 3.0 | 4.0 | 0.00 | 0.00 | 0.00 | 27 | 1012.7 |
| 20260506191410 | 66 | 310 | 4.0 | 7.0 | 0.00 | 0.00 | 0.00 | 29 | 1012.4 |
| 20260506190908 | 66 | 349 | 2.0 | 5.0 | 0.00 | 0.00 | 0.00 | 31 | 1012.5 |
| 20260506190403 | 67 | 96 | 7.0 | 8.0 | 0.00 | 0.00 | 0.00 | 29 | 1012.7 |
| 20260506185900 | 66 | 286 | 2.0 | 5.0 | 0.00 | 0.00 | 0.00 | 32 | 1012.7 |
| 20260506185357 | 66 | 37 | 6.0 | 13.0 | 0.00 | 0.00 | 0.00 | 30 | 1012.7 |
| 20260506184855 | 63 | 75 | 3.0 | 10.0 | 0.00 | 0.00 | 0.00 | 34 | 1012.9 |
| 20260506184351 | 67 | 37 | 4.0 | 4.0 | 0.00 | 0.00 | 0.00 | 34 | 1012.5 |
| 20260506183849 | 67 | 256 | 2.0 | 4.0 | 0.00 | 0.00 | 0.00 | 35 | 1012.5 |
| 20260506183344 | 69 | 180 | 4.0 | 4.0 | 0.00 | 0.00 | 0.00 | 34 | 1012.7 |
| 20260506182841 | 66 | 181 | 2.0 | 4.0 | 0.00 | 0.00 | 0.00 | 34 | 1013.0 |
| 20260506182338 | 66 | 182 | 7.0 | 10.0 | 0.00 | 0.00 | 0.00 | 34 | 1012.8 |
| 20260506181831 | 66 | 261 | 2.0 | 6.0 | 0.00 | 0.00 | 0.00 | 37 | 1012.5 |
| 20260506181329 | 65 | 70 | 2.0 | 4.0 | 0.00 | 0.00 | 0.00 | 35 | 1013.0 |
| 20260506180825 | 64 | 322 | 2.0 | 4.0 | 0.00 | 0.00 | 0.00 | 38 | 1012.7 |
| 20260506180321 | 65 | 160 | 4.0 | 6.0 | 0.00 | 0.00 | 0.00 | 36 | 1012.8 |
| 20260506175817 | 65 | 203 | 0.0 | 6.0 | 0.00 | 0.00 | 0.00 | 35 | 1012.8 |
| 20260506175314 | 64 | 275 | 2.0 | 2.0 | 0.00 | 0.00 | 0.00 | 39 | 1012.7 |
| 20260506174812 | 63 | 156 | 2.0 | 5.0 | 0.00 | 0.00 | 0.00 | 37 | 1012.8 |
| 20260506174309 | 64 | 229 | 4.0 | 5.0 | 0.00 | 0.00 | 0.00 | 37 | 1012.8 |
| 20260506173806 | 64 | 193 | 5.0 | 6.0 | 0.00 | 0.00 | 0.00 | 37 | 1012.7 |
| 20260506173303 | 61 | 341 | 1.0 | 8.0 | 0.00 | 0.00 | 0.00 | 38 | 1012.5 |
| 20260506172800 | 62 | 151 | 2.0 | 4.0 | 0.00 | 0.00 | 0.00 | 41 | 1012.9 |
| 20260506172256 | 60 | 209 | 4.0 | 6.0 | 0.00 | 0.00 | 0.00 | 41 | 1012.4 |
| 20260506171754 | 60 | 178 | 5.0 | 5.0 | 0.00 | 0.00 | 0.00 | 40 | 1012.8 |
| 20260506171251 | 60 | 145 | 8.0 | 13.0 | 0.00 | 0.00 | 0.00 | 40 | 1012.5 |
| 20260506170749 | 61 | 263 | 2.0 | 5.0 | 0.00 | 0.00 | 0.00 | 42 | 1012.3 |
| 20260506170245 | 61 | 252 | 0.0 | 7.0 | 0.00 | 0.00 | 0.00 | 43 | 1012.4 |
| 20260506165743 | 62 | 249 | 2.0 | 8.0 | 0.00 | 0.00 | 0.00 | 40 | 1012.3 |
| 20260506165240 | 64 | 278 | 2.0 | 4.0 | 0.00 | 0.00 | 0.00 | 39 | 1012.3 |
| 20260506164737 | 62 | 54 | 2.0 | 2.0 | 0.00 | 0.00 | 0.00 | 43 | 1012.4 |
| 20260506164234 | 60 | 89 | 0.0 | 6.0 | 0.00 | 0.00 | 0.00 | 39 | 1012.3 |
| 20260506163731 | 58 | 72 | 3.0 | 8.0 | 0.00 | 0.00 | 0.00 | 42 | 1012.2 |
| 20260506163225 | 58 | 147 | 0.0 | 2.0 | 0.00 | 0.00 | 0.00 | 43 | 1012.3 |
| 20260506162722 | 57 | 268 | 2.0 | 2.0 | 0.00 | 0.00 | 0.00 | 46 | 1012.3 |
| 20260506162220 | 56 | 115 | 2.0 | 4.0 | 0.00 | 0.00 | 0.00 | 45 | 1012.2 |
| 20260506161717 | 55 | 185 | 2.0 | 2.0 | 0.00 | 0.00 | 0.00 | 47 | 1011.9 |
| 20260506161214 | 54 | 55 | 0.0 | 1.0 | 0.00 | 0.00 | 0.00 | 49 | 1012.1 |
| 20260506160712 | 53 | 326 | 2.0 | 3.0 | 0.00 | 0.00 | 0.00 | 49 | 1011.9 |
| 20260506160208 | 54 | 283 | 0.0 | 5.0 | 0.00 | 0.00 | 0.00 | 49 | 1011.8 |
| 20260506155707 | 53 | 346 | 2.0 | 3.0 | 0.00 | 0.00 | 0.00 | 50 | 1012.1 |
| 20260506155204 | 54 | 124 | 3.0 | 5.0 | 0.00 | 0.00 | 0.00 | 47 | 1011.8 |
| 20260506153306 | 53 | 319 | 1.0 | 3.0 | 0.00 | 0.00 | 0.00 | 46 | 1011.9 |
| 20260506152803 | 54 | 222 | 2.0 | 6.0 | 0.00 | 0.00 | 0.00 | 48 | 1011.9 |
| 20260506152300 | 54 | 177 | 3.0 | 6.0 | 0.00 | 0.00 | 0.00 | 45 | 1012.2 |
| 20260506151759 | 55 | 165 | 1.0 | 8.0 | 0.00 | 0.00 | 0.00 | 44 | 1012.2 |
| 20260506151255 | 56 | 352 | 1.0 | 4.0 | 0.00 | 0.00 | 0.00 | 47 | 1011.9 |
| 20260506150751 | 56 | 59 | 2.0 | 4.0 | 0.00 | 0.00 | 0.00 | 45 | 1012.2 |
| 20260506150249 | 54 | 164 | 0.0 | 3.0 | 0.00 | 0.00 | 0.00 | 50 | 1012.3 |
| 20260506145746 | 53 | 222 | 3.0 | 5.0 | 0.00 | 0.00 | 0.00 | 48 | 1012.3 |
| 20260506145242 | 52 | 206 | 0.0 | 2.0 | 0.00 | 0.00 | 0.00 | 52 | 1012.2 |
| 20260506144740 | 51 | 6 | 0.0 | 2.0 | 0.00 | 0.00 | 0.00 | 53 | 1012.2 |
| 20260506144237 | 51 | 315 | 0.0 | 2.0 | 0.00 | 0.00 | 0.00 | 54 | 1012.2 |
| 20260506143734 | 51 | 116 | 0.0 | 2.0 | 0.00 | 0.00 | 0.00 | 50 | 1012.1 |
| 20260506143231 | 51 | 55 | 0.0 | 2.0 | 0.00 | 0.00 | 0.00 | 53 | 1011.9 |
| 20260506142730 | 49 | 17 | 0.0 | 3.0 | 0.00 | 0.00 | 0.00 | 53 | 1012.4 |
| 20260506142228 | 47 | 57 | 2.0 | 4.0 | 0.00 | 0.00 | 0.00 | 56 | 1012.1 |
| 20260506141725 | 46 | 55 | 3.0 | 4.0 | 0.00 | 0.00 | 0.00 | 59 | 1012.1 |
| 20260506141224 | 45 | 81 | 3.0 | 5.0 | 0.00 | 0.00 | 0.00 | 60 | 1011.7 |
| 20260506140721 | 44 | 49 | 5.0 | 6.0 | 0.00 | 0.00 | 0.00 | 62 | 1012.1 |
| 20260506140218 | 43 | 42 | 4.0 | 5.0 | 0.00 | 0.00 | 0.00 | 62 | 1011.8 |
| 20260506135714 | 42 | 47 | 5.0 | 7.0 | 0.00 | 0.00 | 0.00 | 64 | 1011.6 |
| 20260506135211 | 41 | 66 | 4.0 | 6.0 | 0.00 | 0.00 | 0.00 | 66 | 1011.5 |
| 20260506134708 | 41 | 72 | 4.0 | 6.0 | 0.00 | 0.00 | 0.00 | 67 | 1011.7 |
| 20260506134204 | 40 | 67 | 5.0 | 8.0 | 0.00 | 0.00 | 0.00 | 69 | 1011.4 |
| 20260506133701 | 38 | 48 | 6.0 | 10.0 | 0.00 | 0.00 | 0.00 | 71 | 1011.1 |
| 20260506133157 | 37 | 63 | 5.0 | 6.0 | 0.00 | 0.00 | 0.00 | 72 | 1011.2 |
| 20260506132655 | 37 | 62 | 4.0 | 6.0 | 0.00 | 0.00 | 0.00 | 72 | 1010.9 |
| 20260506132152 | 37 | 82 | 4.0 | 6.0 | 0.00 | 0.00 | 0.00 | 73 | 1011.0 |
| 20260506131649 | 37 | 117 | 6.0 | 8.0 | 0.00 | 0.00 | 0.00 | 73 | 1010.9 |
| 20260506131145 | 37 | 60 | 3.0 | 6.0 | 0.00 | 0.00 | 0.00 | 72 | 1010.8 |
| 20260506130642 | 38 | 70 | 5.0 | 7.0 | 0.00 | 0.00 | 0.00 | 71 | 1011.0 |
| 20260506130139 | 38 | 60 | 4.0 | 9.0 | 0.00 | 0.00 | 0.00 | 71 | 1010.5 |
| 20260506125637 | 37 | 56 | 5.0 | 7.0 | 0.00 | 0.00 | 0.00 | 72 | 1010.8 |
| 20260506125134 | 37 | 59 | 9.0 | 10.0 | 0.00 | 0.00 | 0.00 | 72 | 1010.8 |
| 20260506124632 | 38 | 70 | 6.0 | 9.0 | 0.00 | 0.00 | 0.00 | 71 | 1010.7 |
| 20260506124130 | 38 | 89 | 4.0 | 9.0 | 0.00 | 0.00 | 0.00 | 71 | 1010.4 |
| 20260506123628 | 38 | 111 | 4.0 | 8.0 | 0.00 | 0.00 | 0.00 | 70 | 1010.5 |
| 20260506123127 | 38 | 59 | 5.0 | 9.0 | 0.00 | 0.00 | 0.00 | 69 | 1010.4 |
| 20260506122623 | 38 | 109 | 6.0 | 11.0 | 0.00 | 0.00 | 0.00 | 70 | 1010.4 |
| 20260506122120 | 38 | 74 | 5.0 | 8.0 | 0.00 | 0.00 | 0.00 | 71 | 1010.3 |
| 20260506121618 | 38 | 70 | 4.0 | 8.0 | 0.00 | 0.00 | 0.00 | 71 | 1010.2 |
| 20260506121114 | 38 | 77 | 8.0 | 12.0 | 0.00 | 0.00 | 0.00 | 71 | 1010.1 |
| 20260506120613 | 38 | 80 | 2.0 | 11.0 | 0.00 | 0.00 | 0.00 | 71 | 1010.2 |
| 20260506120110 | 37 | 112 | 3.0 | 8.0 | 0.00 | 0.00 | 0.00 | 73 | 1009.8 |
| 20260506115608 | 37 | 37 | 6.0 | 7.0 | 0.00 | 0.00 | 0.00 | 73 | 1010.1 |
| 20260506115106 | 37 | 51 | 5.0 | 8.0 | 0.00 | 0.00 | 0.00 | 74 | 1010.1 |
| 20260506114603 | 36 | 73 | 5.0 | 9.0 | 0.00 | 0.00 | 0.00 | 76 | 1009.9 |
| 20260506114101 | 36 | 121 | 4.0 | 5.0 | 0.00 | 0.00 | 0.00 | 76 | 1009.5 |
| 20260506113558 | 36 | 94 | 4.0 | 6.0 | 0.00 | 0.00 | 0.00 | 77 | 1009.6 |
| 20260506113055 | 36 | 70 | 3.0 | 4.0 | 0.00 | 0.00 | 0.00 | 77 | 1009.7 |
| 20260506112551 | 36 | 97 | 3.0 | 4.0 | 0.00 | 0.00 | 0.00 | 77 | 1009.7 |
| 20260506112049 | 36 | 63 | 4.0 | 5.0 | 0.00 | 0.00 | 0.00 | 76 | 1009.7 |
| 20260506111547 | 37 | 103 | 3.0 | 6.0 | 0.00 | 0.00 | 0.00 | 76 | 1009.4 |
| 20260506111044 | 36 | 116 | 4.0 | 5.0 | 0.00 | 0.00 | 0.00 | 77 | 1009.7 |
| 20260506110541 | 37 | 85 | 2.0 | 3.0 | 0.00 | 0.00 | 0.00 | 75 | 1009.5 |
| 20260506110038 | 37 | 92 | 1.0 | 4.0 | 0.00 | 0.00 | 0.00 | 75 | 1009.4 |
| 20260506105534 | 37 | 123 | 2.0 | 5.0 | 0.00 | 0.00 | 0.00 | 75 | 1009.5 |
| 20260506105032 | 37 | 125 | 3.0 | 3.0 | 0.00 | 0.00 | 0.00 | 75 | 1009.4 |
| 20260506104530 | 37 | 58 | 3.0 | 4.0 | 0.00 | 0.00 | 0.00 | 75 | 1009.4 |
| 20260506104027 | 37 | 121 | 3.0 | 5.0 | 0.00 | 0.00 | 0.00 | 75 | 1009.4 |
| 20260506103524 | 37 | 48 | 3.0 | 4.0 | 0.00 | 0.00 | 0.00 | 75 | 1009.5 |
| 20260506103021 | 37 | 104 | 3.0 | 4.0 | 0.00 | 0.00 | 0.00 | 75 | 1009.5 |
| 20260506102520 | 38 | 101 | 3.0 | 3.0 | 0.00 | 0.00 | 0.00 | 75 | 1009.5 |
| 20260506102017 | 38 | 81 | 2.0 | 6.0 | 0.00 | 0.00 | 0.00 | 75 | 1009.1 |
| 20260506101514 | 38 | 107 | 2.0 | 4.0 | 0.00 | 0.00 | 0.00 | 74 | 1009.1 |
| 20260506101011 | 38 | 113 | 2.0 | 5.0 | 0.00 | 0.00 | 0.00 | 74 | 1009.4 |
| 20260506100509 | 38 | 106 | 3.0 | 4.0 | 0.00 | 0.00 | 0.00 | 75 | 1009.2 |
| 20260506100007 | 38 | 104 | 2.0 | 3.0 | 0.00 | 0.00 | 0.00 | 75 | 1009.4 |
| 20260506095506 | 38 | 117 | 4.0 | 4.0 | 0.00 | 0.00 | 0.00 | 75 | 1009.2 |
| 20260506095001 | 39 | 123 | 3.0 | 3.0 | 0.00 | 0.00 | 0.00 | 74 | 1009.2 |
| 20260506094459 | 39 | 100 | 3.0 | 5.0 | 0.00 | 0.00 | 0.00 | 73 | 1009.2 |
| 20260506093956 | 39 | 67 | 3.0 | 4.0 | 0.00 | 0.00 | 0.00 | 74 | 1008.9 |
| 20260506093455 | 39 | 75 | 2.0 | 5.0 | 0.00 | 0.00 | 0.00 | 73 | 1009.0 |
| 20260506092952 | 39 | 115 | 1.0 | 4.0 | 0.00 | 0.00 | 0.00 | 74 | 1009.1 |
| 20260506092450 | 39 | 69 | 4.0 | 4.0 | 0.00 | 0.00 | 0.00 | 74 | 1009.0 |
| 20260506091946 | 39 | 106 | 4.0 | 5.0 | 0.00 | 0.00 | 0.00 | 75 | 1009.0 |
| 20260506091445 | 40 | 98 | 2.0 | 2.0 | 0.00 | 0.00 | 0.00 | 74 | 1009.0 |
| 20260506090942 | 40 | 86 | 2.0 | 3.0 | 0.00 | 0.00 | 0.00 | 74 | 1009.1 |
| 20260506090440 | 40 | 120 | 3.0 | 4.0 | 0.00 | 0.00 | 0.00 | 74 | 1009.0 |
| 20260506085935 | 40 | 88 | 2.0 | 4.0 | 0.00 | 0.00 | 0.00 | 74 | 1008.9 |
| 20260506085432 | 40 | 68 | 3.0 | 3.0 | 0.00 | 0.00 | 0.00 | 74 | 1008.9 |
| 20260506084929 | 40 | 58 | 2.0 | 3.0 | 0.00 | 0.00 | 0.00 | 73 | 1009.0 |
| 20260506084426 | 40 | 67 | 1.0 | 3.0 | 0.00 | 0.00 | 0.00 | 74 | 1008.7 |
| 20260506083922 | 41 | 100 | 3.0 | 3.0 | 0.00 | 0.00 | 0.00 | 74 | 1008.8 |
| 20260506083419 | 40 | 88 | 3.0 | 3.0 | 0.00 | 0.00 | 0.00 | 75 | 1008.9 |
| 20260506082917 | 41 | 93 | 1.0 | 3.0 | 0.00 | 0.00 | 0.00 | 74 | 1008.7 |
| 20260506082414 | 41 | 71 | 2.0 | 2.0 | 0.00 | 0.00 | 0.00 | 73 | 1008.8 |
| 20260506081909 | 41 | 97 | 2.0 | 3.0 | 0.00 | 0.00 | 0.00 | 72 | 1008.7 |
| 20260506081408 | 42 | 135 | 2.0 | 2.0 | 0.00 | 0.00 | 0.00 | 70 | 1008.8 |
| 20260506080905 | 42 | 122 | 1.0 | 3.0 | 0.00 | 0.00 | 0.00 | 69 | 1009.0 |
| 20260506080402 | 43 | 116 | 3.0 | 4.0 | 0.00 | 0.00 | 0.00 | 68 | 1008.8 |
| 20260506073345 | 44 | 86 | 2.0 | 2.0 | 0.00 | 0.00 | 0.00 | 67 | 1008.5 |
| 20260506072842 | 44 | 100 | 3.0 | 3.0 | 0.00 | 0.00 | 0.00 | 66 | 1008.7 |
| 20260506072340 | 44 | 102 | 2.0 | 3.0 | 0.00 | 0.00 | 0.00 | 67 | 1008.9 |
| 20260506071837 | 44 | 92 | 2.0 | 2.0 | 0.00 | 0.00 | 0.00 | 67 | 1008.7 |
| 20260506071335 | 44 | 70 | 2.0 | 3.0 | 0.00 | 0.00 | 0.00 | 66 | 1008.4 |
| 20260506070832 | 44 | 51 | 2.0 | 2.0 | 0.00 | 0.00 | 0.00 | 66 | 1008.7 |
| 20260506070329 | 44 | 82 | 2.0 | 2.0 | 0.00 | 0.00 | 0.00 | 66 | 1008.7 |
| 20260506062306 | 46 | 120 | 2.0 | 2.0 | 0.00 | 0.00 | 0.00 | 60 | 1008.4 |
| 20260506061802 | 46 | 145 | 0.0 | 1.0 | 0.00 | 0.00 | 0.00 | 59 | 1008.4 |
| 20260506061259 | 46 | 49 | 0.0 | 1.0 | 0.00 | 0.00 | 0.00 | 60 | 1008.5 |
| 20260506060757 | 46 | 58 | 2.0 | 2.0 | 0.00 | 0.00 | 0.00 | 57 | 1008.4 |
| 20260506060255 | 46 | 85 | 0.0 | 2.0 | 0.00 | 0.00 | 0.00 | 56 | 1008.4 |
| 20260506051226 | 47 | 95 | 2.0 | 3.0 | 0.00 | 0.00 | 0.00 | 58 | 1008.1 |
| 20260506050724 | 47 | 71 | 3.0 | 3.0 | 0.00 | 0.00 | 0.00 | 57 | 1008.2 |
| 20260506050221 | 47 | 112 | 2.0 | 2.0 | 0.00 | 0.00 | 0.00 | 57 | 1008.2 |
| 20260506044712 | 47 | 108 | 2.0 | 3.0 | 0.00 | 0.00 | 0.00 | 56 | 1008.2 |
| 20260506044209 | 47 | 88 | 2.0 | 2.0 | 0.00 | 0.00 | 0.00 | 52 | 1008.1 |
| 20260506043707 | 47 | 44 | 2.0 | 2.0 | 0.00 | 0.00 | 0.00 | 53 | 1008.2 |
| 20260506043204 | 47 | 51 | 2.0 | 2.0 | 0.00 | 0.00 | 0.00 | 55 | 1007.8 |
| 20260506042703 | 47 | 57 | 1.0 | 2.0 | 0.00 | 0.00 | 0.00 | 55 | 1007.9 |
| 20260506042200 | 47 | 44 | 2.0 | 2.0 | 0.00 | 0.00 | 0.00 | 54 | 1007.9 |
| 20260506041653 | 48 | 89 | 0.0 | 3.0 | 0.00 | 0.00 | 0.00 | 52 | 1007.7 |
| 20260506041149 | 48 | 101 | 2.0 | 3.0 | 0.00 | 0.00 | 0.00 | 52 | 1007.8 |